Regional Weather Roundup
Issued by NWS Mt. Holly, NJ

Home | Current Version | Previous Version | Text Only | Print | Product List | Glossary On
Versions: 1 2 3 4 5 6 7 8 9 10 11 12 13 14 15 16 17 18 19 20 21 22 23 24 25 26 27 28 29 30 31 32 33 34 35 36 37 38 39 40 41 42 43 44 45 46 47 48 49 50
000
ASUS41 KPHI 190210
RWRPHI

REGIONAL WEATHER ROUNDUP
NATIONAL WEATHER SERVICE MOUNT HOLLY NJ
1000 PM EDT THU SEP 18 2014

NOTE:  "FAIR" INDICATES FEW OR NO CLOUDS BELOW 12,000 FEET WITH NO
SIGNIFICANT WEATHER AND/OR OBSTRUCTIONS TO VISIBILITY.

 * = STATION DOES NOT REPORT PRECIPITATION (E.G. RAIN, SNOW, ETC.)
        OR FOG.

NJZ015>026-190300-
SOUTHERN NEW JERSEY

CITY           SKY/WX    TMP DP  RH WIND       PRES   REMARKS
POMONA         PTCLDY    58  56  93 CALM      30.07R
RIO GRANDE*    PTCLDY    61  52  72 CALM      30.09R
MILLVILLE      CLEAR     57  55  93 CALM      30.08R
WRIGHTSTOWN    CLEAR     59  55  89 S3        30.05R
MOUNT HOLLY    MOCLDY    60  55  83 CALM      30.07R
TRENTON        CLEAR     61  51  70 NW3       30.06R

$$
NJZ001>014-190300-
NORTHERN NEW JERSEY

CITY           SKY/WX    TMP DP  RH WIND       PRES   REMARKS
SUSSEX         CLOUDY    53  50  89 S3        30.10R
ANDOVER*         N/A     51  49  92 CALM      30.10R
MORRISTOWN     CLEAR     52  50  93 CALM      30.08R
NEWARK         PTCLDY    69  44  40 N8        30.06R
TETERBORO      CLEAR     65  44  46 N3        30.05R
CALDWELL       CLEAR     56  48  74 CALM      30.08R
ALLAIRE*       MOCLDY    63  52  67 SW6       30.06S
TOMS RIVER*    PTCLDY    55  52  88 CALM      30.07R

$$
PAZ043-044-047-054-055-060>062-066>071-190300-
EASTERN PENNSYLVANIA

CITY           SKY/WX    TMP DP  RH WIND       PRES   REMARKS
PHILADELPHIA   PTCLDY    65  57  75 SW3       30.08R
NORTH PHILA    CLEAR     63  53  70 W5        30.08R
BLUE BELL      PTCLDY    57  55  94 CALM      30.08R
DOYLESTOWN     CLEAR     57  51  80 CALM      30.07R
QUAKERTOWN*    CLEAR     52  48  87 CALM      30.10R
POTTSTOWN      CLEAR     54  50  86 CALM      30.09R
LANCASTER      CLEAR     59  45  59 CALM      30.09R
COATESVILLE    CLEAR     55  54  94 CALM      30.10R
READING        CLEAR     59  48  67 NW3       30.08R
ALLENTOWN      MOCLDY    58  46  64 NW3       30.09R
MOUNT POCONO   CLEAR     55  47  74 N12       30.12R
HAZLETON       PTCLDY    57  46  67 N7        30.15R
WILKES BARRE   PTCLDY    59  50  72 N13G22    30.13R

$$
DEZALL-MDZ008-012-015-019-020-190300-
DELAWARE AND EASTERN MARYLAND

CITY           SKY/WX    TMP DP  RH WIND       PRES   REMARKS
WILMINGTON     CLEAR     62  57  83 CALM      30.09R
DOVER          CLOUDY    65  57  75 W2        30.06R
GEORGETOWN     CLOUDY    63  57  81 S9        30.08R
PATUXENT       MOCLDY    63  57  81 NW9       30.08R
OCEAN CITY     PTCLDY    60  55  83 CALM      30.08R
WALLOPS ISLAND CLEAR     65  58  78 CALM      30.08R
CAMBRIDGE      MOCLDY    63  59  88 SE6       30.08S
SALISBURY      CLOUDY    65  56  72 CALM      30.08R

$$
PAZ001-021-NYZ056-072-MDZ011-DCZ001-190300-
OTHER NEARBY LOCATIONS

CITY           SKY/WX    TMP DP  RH WIND       PRES   REMARKS
HARRISBURG     CLEAR     57  49  74 CALM      30.09R
STATE COLLEGE  MOCLDY    55  49  80 N5        30.14R
WILLIAMSPORT   PTCLDY    59  49  69 N8        30.14R
BINGHAMTON     MOCLDY    50  46  86 N10       30.17R
NEW YORK CITY  CLEAR     66  46  48 NE3       30.09R
BALTIMORE      PTCLDY    60  58  92 CALM      30.08R
WASHINGTON DC  PTCLDY    69  61  75 NE3       30.08R

$$



USA.gov is the U.S. government's official web portal to all federal, state and local government web resources and services.